This is the latest recevied weather packets stored in our database for station/object W4ZHA. If no packets are shown the sender has not sent any weather packets the latest 10 day(s).
| Time | Temp. | Humidity | Pressure | Rain* | Wind** | Luminosity | Snow |
|---|---|---|---|---|---|---|---|
| 1787686294 | 30.56° C | 45% | 1017.6 hPa | 0 mm | - | 469 W/m² | - |
| 1787685990 | 30° C | 45% | 1017.6 hPa | 0 mm | - | 470 W/m² | - |
| 1787685685 | 30° C | 46% | 1017.6 hPa | 0 mm | - | 472 W/m² | - |
| 1787685384 | 29.44° C | 46% | 1017.9 hPa | 0 mm | - | 474 W/m² | - |
| 1787685079 | 30.56° C | 45% | 1017.9 hPa | 0 mm | - | 478 W/m² | - |
| 1787684775 | 31.11° C | 45% | 1017.9 hPa | 0 mm | - | 479 W/m² | - |
| 1787684474 | 30° C | 46% | 1017.9 hPa | 0 mm | - | 476 W/m² | - |
| 1787684169 | 30.56° C | 45% | 1017.9 hPa | 0 mm | - | 476 W/m² | - |
| 1787683869 | 30° C | 45% | 1017.9 hPa | 0 mm | - | 478 W/m² | - |
| 1787683564 | 30° C | 46% | 1017.9 hPa | 0 mm | - | 480 W/m² | - |
| 1787683259 | 30.56° C | 45% | 1017.9 hPa | 0 mm | - | 480 W/m² | - |
| 1787682956 | 30.56° C | 45% | 1017.9 hPa | 0 mm | - | 478 W/m² | - |
| 1787682652 | 30° C | 45% | 1018.3 hPa | 0 mm | - | 476 W/m² | - |
| 1787682348 | 30.56° C | 45% | 1018.3 hPa | 0 mm | - | 473 W/m² | - |
| 1787682043 | 29.44° C | 46% | 1018.3 hPa | 0 mm | - | 471 W/m² | - |
| 1787681738 | 30.56° C | 45% | 1018.3 hPa | 0 mm | - | 470 W/m² | - |
| 1787681433 | 30.56° C | 45% | 1018.3 hPa | 0 mm | - | 464 W/m² | - |
| 1787681133 | 31.11° C | 45% | 1018.6 hPa | 0 mm | - | 465 W/m² | - |
| 1787680828 | 31.11° C | 45% | 1018.6 hPa | 0 mm | - | 464 W/m² | - |
| 1787680523 | 30.56° C | 45% | 1019 hPa | 0 mm | - | 459 W/m² | - |
| 1787680222 | 29.44° C | 46% | 1019 hPa | 0 mm | - | 455 W/m² | - |
| 1787679921 | 28.89° C | 52% | 1018.6 hPa | 0 mm | - | 451 W/m² | - |
| 1787679615 | 27.22° C | 53% | 1019 hPa | 0 mm | - | 451 W/m² | - |
| 1787679311 | 28.89° C | 47% | 1019 hPa | 0 mm | - | 451 W/m² | - |
| 1787679007 | 29.44° C | 52% | 1019 hPa | 0 mm | - | 447 W/m² | - |
* Rain latest hour (hover to see other rain measurements)
** Current wind speed in m/s (hover to see current wind gust speed)